Tracking 20710 objects as of 30-May-2020
HD Live streaming from Space Station
objects crossing your sky now

SL-14 DEB

Track SL-14 DEB now!
10-day predictions


NORAD ID: 26023
Int'l Code: 1991-068AJ
Perigee: 1,459.6 km
Apogee: 1,477.3 km
Inclination: 82.6 °
Period: 115.1 minutes
Semi major axis: 7839 km
RCS: 0.0267 m2 (small)
Launch date: September 28, 1991
Source: Commonwealth of Independent States (former USSR) (CIS)
Launch site: PLESETSK MISSILE AND SPACE COMPLEX (PKMTR)

Note: This is SATELLITE DEBRIS
aabbcc
Your satellite tracking list
Your tracking list is empty




NASA's NSSDC Master Catalog

Two Line Element Set (TLE):
1 26023U 91068AJ  20150.83031566  .00000340  00000-0  21506-2 0  9990
2 26023  82.5789  74.6429 0011337 134.8675 281.1641 12.50761265311413
Source of the keplerian elements: AFSPC